Change the Weather History Date:

Sunday, December 9, 2012

  Actual Average Record
Temperature  
Mean Temperature 67 °F -  
Max Temperature 76 °F 65 °F 76 °F (2012)
Min Temperature 58 °F 41 °F 35 °F (2014)
Cooling Degree Days 2    
Growing Degree Days 17 (Base 50)    
Moisture  
Dew Point 66 °F    
Average Humidity 95    
Maximum Humidity 100    
Minimum Humidity 71    
Precipitation  
Precipitation 0.03 in - - ()
Sea Level Pressure  
Sea Level Pressure 29.97 in    
Wind  
Wind Speed 5 mph (South)    
Max Wind Speed 16 mph    
Max Gust Speed 21 mph    
Visibility 7 miles    
Events Fog , Rain    
Averages and records for this station are not official NWS values.
T = Trace of Precipitation, MM = Missing Value Source: NWS Daily Summary

Daily Weather History Graph

Daily Weather History Graph

Search for Another Location

Airport or City:

Trip Planner

Search our weather history database for the weather conditions in past years. The results will help you decide how hot, cold, wet, or windy it might be!

Date:

Astronomy

Dec. 09, 2012 Rise Set
Actual Time 6:45 AM CST 4:58 PM CST
Civil Twilight 6:19 AM CST 5:24 PM CST
Nautical Twilight 5:49 AM CST 5:54 PM CST
Astronomical Twilight 5:20 AM CST 6:24 PM CST
Moon 2:31 AM CST (12/9) 1:54 PM CST (12/9)
Length of Visible Light 11h 05m
Length of Day
10h 12m
Waning Crescent, 18% of the Moon is Illuminated
Dec 9
Waning Crescent
Dec 13
New
Dec 19
First Quarter
Dec 28
Full
Jan 4
Last Quarter

Hourly Weather History & Observations

Time (CST) Temp. Dew Point Humidity Pressure Visibility Wind Dir Wind Speed Gust Speed Precip Events Conditions
12:15 AM 61.7 °F 61.7 °F 100% 30.00 in 5.0 mi South 3.5 mph - N/A   Mist
12:35 AM 61.3 °F 61.3 °F 100% 29.99 in 2.5 mi South 3.5 mph - N/A   Mist
12:55 AM 58.8 °F 58.8 °F 100% 29.99 in 0.5 mi Calm Calm - N/A Fog Fog
1:15 AM 58.1 °F 58.1 °F 100% 29.99 in 0.2 mi Calm Calm - N/A Fog Fog
1:35 AM 61.7 °F 61.7 °F 100% 29.98 in 0.5 mi South 5.8 mph - N/A Fog Fog
1:55 AM 61.9 °F 61.9 °F 100% 29.98 in 0.5 mi SSE 5.8 mph - N/A Fog Fog
2:15 AM 62.2 °F 62.2 °F 100% 29.98 in 0.2 mi SSE 5.8 mph - N/A Fog Fog
2:35 AM 62.6 °F 62.6 °F 100% 29.98 in 0.5 mi South 6.9 mph - N/A Fog Fog
2:55 AM 62.6 °F 62.6 °F 100% 29.98 in 1.0 mi South 4.6 mph - N/A   Mist
3:15 AM 62.2 °F 62.2 °F 100% 29.98 in 5.0 mi SSE 4.6 mph - N/A   Mist
3:35 AM 62.2 °F 62.2 °F 100% 29.99 in 3.0 mi South 5.8 mph - N/A   Mist
3:55 AM 62.6 °F 62.6 °F 100% 29.99 in 1.2 mi SSE 4.6 mph - N/A   Mist
4:15 AM 62.2 °F 62.2 °F 100% 29.99 in 1.5 mi South 4.6 mph - N/A   Mist
4:35 AM 62.2 °F 62.2 °F 100% 29.98 in 2.0 mi SSE 5.8 mph - N/A   Mist
4:55 AM 62.1 °F 62.1 °F 100% 29.99 in 1.2 mi South 4.6 mph - N/A   Mist
5:15 AM 61.7 °F 61.7 °F 100% 30.00 in 2.0 mi SSE 3.5 mph - N/A   Mist
5:35 AM 61.7 °F 61.7 °F 100% 30.01 in 1.8 mi South 3.5 mph - N/A   Mist
5:55 AM 61.7 °F 61.7 °F 100% 30.01 in 1.0 mi South 4.6 mph - N/A   Mist
6:15 AM 61.9 °F 61.9 °F 100% 30.02 in 2.0 mi SSE 5.8 mph - N/A   Mist
6:35 AM 62.1 °F 62.1 °F 100% 30.03 in 5.0 mi South 3.5 mph - N/A   Mist
6:55 AM 61.9 °F 61.9 °F 100% 30.03 in 1.8 mi Calm Calm - N/A   Mist
7:15 AM 61.9 °F 61.9 °F 100% 30.03 in 4.0 mi Calm Calm - N/A   Mist
7:35 AM 61.9 °F 61.9 °F 100% 30.03 in 2.5 mi Calm Calm - N/A   Mist
7:55 AM 62.4 °F 62.4 °F 100% 30.03 in 7.0 mi Calm Calm - N/A   Unknown
8:15 AM 62.6 °F 62.6 °F 100% 30.03 in 10.0 mi Calm Calm - N/A   Unknown
8:35 AM 63.5 °F 63.5 °F 100% 30.03 in 10.0 mi Calm Calm - N/A   Unknown
8:55 AM 64.6 °F 64.6 °F 100% 30.04 in 10.0 mi Calm Calm - N/A   Unknown
9:15 AM 66.2 °F 66.2 °F 100% 30.04 in 10.0 mi Calm Calm - N/A   Unknown
9:35 AM 67.1 °F 67.1 °F 100% 30.04 in 10.0 mi SSE 3.5 mph - N/A   Unknown
9:55 AM 68.9 °F 68.9 °F 100% 30.03 in 10.0 mi SSE 6.9 mph - N/A   Unknown
10:35 AM 70.7 °F 70.7 °F 100% 30.03 in 10.0 mi Calm Calm - N/A   Unknown
10:55 AM 71.4 °F 71.4 °F 100% 30.02 in 10.0 mi Calm Calm - N/A   Overcast
11:15 AM 73.4 °F 72.1 °F 96% 30.01 in 10.0 mi South 4.6 mph - N/A   Overcast
11:35 AM 73.9 °F 70.7 °F 90% 30.00 in 10.0 mi South 5.8 mph 9.2 mph N/A   Overcast
11:55 AM 73.8 °F 65.3 °F 75% 29.99 in 10.0 mi South 10.4 mph 17.3 mph N/A   Overcast
12:15 PM 74.3 °F 65.7 °F 74% 29.98 in 10.0 mi South 8.1 mph - N/A   Overcast
12:35 PM 74.8 °F 65.5 °F 73% 29.96 in 10.0 mi SSW 13.8 mph 19.6 mph N/A   Overcast
12:55 PM 74.7 °F 65.7 °F 73% 29.96 in 10.0 mi South 12.7 mph 18.4 mph N/A   Overcast
1:15 PM 75.6 °F 66.0 °F 72% 29.95 in 10.0 mi SSW 12.7 mph 17.3 mph N/A   Overcast
1:35 PM 75.9 °F 66.0 °F 71% 29.94 in 10.0 mi South 8.1 mph 18.4 mph N/A   Overcast
1:55 PM 75.4 °F 66.7 °F 74% 29.93 in 10.0 mi SSW 9.2 mph 18.4 mph N/A   Overcast
2:15 PM 76.3 °F 66.2 °F 71% 29.92 in 10.0 mi SSW 9.2 mph - N/A Rain Light Rain
2:35 PM 75.2 °F 65.3 °F 71% 29.93 in 10.0 mi South 16.1 mph 20.7 mph 0.01 in   Mostly Cloudy
2:55 PM 73.8 °F 67.6 °F 81% 29.93 in 10.0 mi SSW 8.1 mph - 0.03 in Rain Light Rain
3:15 PM 74.3 °F 67.8 °F 80% 29.92 in 10.0 mi SSW 8.1 mph - N/A   Scattered Clouds
3:35 PM 74.3 °F 67.8 °F 80% 29.93 in 10.0 mi SSW 9.2 mph - N/A   Scattered Clouds
3:55 PM 74.3 °F 67.5 °F 79% 29.92 in 10.0 mi SSW 9.2 mph - N/A   Mostly Cloudy
4:15 PM 73.4 °F 67.1 °F 81% 29.92 in 10.0 mi SSW 10.4 mph - N/A   Light Drizzle
4:35 PM 72.5 °F 66.7 °F 82% 29.92 in 10.0 mi South 9.2 mph - N/A   Scattered Clouds
4:55 PM 71.6 °F 70.9 °F 98% 29.93 in 10.0 mi SSW 6.9 mph - N/A   Clear
5:15 PM 70.9 °F 70.9 °F 100% 29.92 in 10.0 mi South 5.8 mph - N/A   Scattered Clouds
5:35 PM 71.1 °F 71.1 °F 100% 29.92 in 10.0 mi SSW 9.2 mph - N/A   Overcast
5:55 PM 70.9 °F 70.9 °F 100% 29.93 in 10.0 mi SSW 8.1 mph - N/A   Scattered Clouds
6:15 PM 70.9 °F 70.9 °F 100% 29.93 in 10.0 mi SSW 9.2 mph - N/A   Scattered Clouds
6:35 PM 71.2 °F 71.2 °F 100% 29.94 in 10.0 mi SSW 9.2 mph - N/A   Mostly Cloudy
6:55 PM 70.9 °F 70.9 °F 100% 29.94 in 10.0 mi South 6.9 mph - N/A   Mostly Cloudy
7:15 PM 70.5 °F 70.5 °F 100% 29.93 in 10.0 mi South 8.1 mph - N/A   Scattered Clouds
7:35 PM 70.3 °F 70.3 °F 100% 29.93 in 10.0 mi South 6.9 mph - N/A   Clear
7:55 PM 70.3 °F 70.3 °F 100% 29.93 in 10.0 mi South 8.1 mph - N/A   Scattered Clouds
8:15 PM 70.2 °F 70.2 °F 100% 29.93 in 10.0 mi South 5.8 mph - N/A   Mostly Cloudy
8:35 PM 69.6 °F 69.6 °F 100% 29.93 in 10.0 mi South 4.6 mph - N/A   Mostly Cloudy
8:55 PM 69.4 °F 69.4 °F 100% 29.92 in 10.0 mi South 5.8 mph - N/A   Mostly Cloudy
9:15 PM 69.8 °F 69.8 °F 100% 29.92 in 7.0 mi South 6.9 mph - N/A   Overcast
9:35 PM 70.3 °F 70.3 °F 100% 29.91 in 7.0 mi South 10.4 mph 16.1 mph N/A   Mostly Cloudy
9:55 PM 70.2 °F 70.2 °F 100% 29.92 in 10.0 mi South 10.4 mph - N/A   Overcast
10:15 PM 70.5 °F 70.5 °F 100% 29.92 in 10.0 mi SSW 8.1 mph - N/A   Overcast
10:35 PM 70.7 °F 70.7 °F 100% 29.93 in 10.0 mi SSW 8.1 mph - N/A   Overcast
10:55 PM 70.7 °F 70.7 °F 100% 29.94 in 10.0 mi SSW 6.9 mph - N/A   Overcast
11:15 PM 70.9 °F 70.9 °F 100% 29.93 in 10.0 mi SSW 8.1 mph - N/A   Overcast
11:35 PM 70.9 °F 70.9 °F 100% 29.92 in 10.0 mi South 9.2 mph - N/A   Overcast
11:55 PM 70.9 °F 70.9 °F 100% 29.92 in 10.0 mi SSW 10.4 mph - N/A   Overcast